Location: Dittelbrunn
(50.0738°N, 10.2196°E)
Time: 13:46:04
(UTC+00:00)

Resurs 01 Rocket - Pass Details

Date: 18 September 2020
Orbit: 633 x 645 km, 98.0° (Epoch: 25 October)

Event Time Altitude Azimuth Distance (km) Brightness Sun altitude
Exits shadow 19:19:16 39° 116° (ESE) 970 2.0 -18.4°
Maximum altitude 19:20:27 51° 70° (ENE) 821 1.9 -18.6°
Drops below altitude 10° 19:24:47 10° 355° (N) 2,054 4.6 -19.2°
Sets 19:27:02 0° 351° (N) 2,967 5.6 -19.6°
